EW4354 Weather Reports


Display with metric or nautical units.
time (UTC)temp
F
wind
direction
speed
MPH
gust
MPH
rain 1hr
in
rain 24hr
in
rain mn
in
humidity
%
barometer
mb
20260504100403 47 234 3.0 3.0 0.00 0.00 0.00 60 1011.0
20260504045915 42 98 2.0 3.0 0.00 0.00 0.00 73 1011.6
20260504044403 42 98 2.0 3.0 0.00 0.00 0.00 71 1011.7
20260504043914 42 98 1.0 3.0 0.00 0.00 0.00 70 1011.7
20260504043426 42 98 2.0 3.0 0.00 0.00 0.00 70 1011.7
20260504031903 42 274 2.0 3.0 0.00 0.00 0.00 66 1011.3
20260504031404 42 274 1.0 2.0 0.00 0.00 0.00 66 1011.4
20260504023903 44 274 1.0 3.0 0.00 0.00 0.00 58 1011.1
20260504023406 45 274 1.0 2.0 0.00 0.00 0.00 56 1011.2
20260504022903 45 274 1.0 1.0 0.00 0.00 0.00 56 1011.2
20260504022404 45 274 1.0 1.0 0.00 0.00 0.00 53 1011.3
20260504021903 45 274 1.0 1.0 0.00 0.00 0.00 54 1011.3
20260504020403 46 274 0.0 2.0 0.00 0.00 0.00 53 1011.4
20260504015903 46 274 0.0 0.0 0.00 0.00 0.00 52 1011.4
20260504015403 47 274 0.0 0.0 0.00 0.00 0.00 51 1011.4
20260503233428 53 335 2.0 7.0 0.00 0.00 0.00 37 1009.8
20260503213903 56 14 4.0 10.0 0.00 0.00 0.00 31 1009.3
20260503205403 56 281 5.0 8.0 0.00 0.00 0.00 35 1009.2
20260503204903 56 328 2.0 8.0 0.00 0.00 0.00 37 1009.2
20260503193904 53 352 3.0 10.0 0.00 0.00 0.00 42 1010.1
20260503193405 53 273 6.0 14.0 0.00 0.00 0.00 40 1010.1
20260503192903 53 299 7.0 12.0 0.00 0.00 0.00 39 1010.2
20260503192405 53 280 5.0 12.0 0.00 0.00 0.00 42 1010.2
20260503191903 53 286 5.0 7.0 0.00 0.00 0.00 43 1010.2
20260503191403 52 276 4.0 12.0 0.00 0.00 0.00 44 1010.3
20260503190404 51 27 2.0 8.0 0.00 0.00 0.00 44 1010.3
20260503185904 51 257 2.0 9.0 0.00 0.00 0.00 43 1010.4
20260503184904 50 291 4.0 9.0 0.00 0.00 0.00 43 1010.7
20260503184403 50 337 5.0 15.0 0.00 0.00 0.00 44 1010.7
20260503183405 50 319 3.0 9.0 0.00 0.00 0.00 47 1010.7
20260503182404 50 305 4.0 9.0 0.00 0.00 0.00 44 1010.7
20260503181904 50 314 4.0 10.0 0.00 0.00 0.00 44 1010.7
20260503181403 50 335 3.0 8.0 0.00 0.00 0.00 44 1010.8
20260503180904 50 289 5.0 12.0 0.00 0.00 0.00 41 1010.8
20260503180403 50 9 3.0 13.0 0.00 0.00 0.00 42 1010.7
20260503175905 50 309 7.0 16.0 0.00 0.00 0.00 42 1010.6
20260503174903 49 285 8.0 12.0 0.00 0.00 0.00 42 1010.8
20260503174405 49 288 9.0 18.0 0.00 0.00 0.00 41 1010.7
20260503172904 49 295 6.0 12.0 0.00 0.00 0.00 43 1010.8
20260503172404 49 299 6.0 17.0 0.00 0.00 0.00 44 1010.8
20260503171903 49 294 6.0 14.0 0.00 0.00 0.00 44 1010.8
20260503171403 49 286 9.0 15.0 0.00 0.00 0.00 44 1010.8
20260503170903 49 346 5.0 15.0 0.00 0.00 0.00 45 1010.8
20260503170405 49 297 9.0 12.0 0.00 0.00 0.00 43 1010.8
20260503150903 48 299 4.0 10.0 0.00 0.00 0.00 52 1011.0
20260503131403 44 278 3.0 6.0 0.00 0.00 0.00 71 1011.8
20260503130403 44 283 2.0 3.0 0.00 0.00 0.00 73 1011.7
20260503110403 37 355 0.0 2.0 0.00 0.03 0.00 85 1011.2